| time (UTC) | temp F | wind direction | speed knots | gust knots | rain 1hr in | rain 24hr in | rain mn in | humidity % | barometer mb |
| 20260506124006 | 58 | 38 | 5.2 | 10.4 | 0.00 | 0.00 | 0.00 | 48 | 1009.6 |
| 20260506123505 | 58 | 7 | 6.1 | 10.4 | 0.00 | 0.00 | 0.00 | 49 | 1009.5 |
| 20260506123005 | 58 | 56 | 4.3 | 11.3 | 0.00 | 0.00 | 0.00 | 49 | 1009.4 |
| 20260506122504 | 58 | 15 | 5.2 | 8.7 | 0.00 | 0.00 | 0.00 | 50 | 1009.5 |
| 20260506122005 | 58 | 17 | 2.6 | 7.8 | 0.00 | 0.00 | 0.00 | 53 | 1009.5 |
| 20260506115004 | 59 | 354 | 5.2 | 13.0 | 0.00 | 0.00 | 0.00 | 53 | 1009.3 |
| 20260506114505 | 58 | 74 | 3.5 | 7.0 | 0.00 | 0.00 | 0.00 | 53 | 1009.4 |
| 20260506114005 | 58 | 13 | 4.3 | 10.4 | 0.00 | 0.00 | 0.00 | 50 | 1009.5 |
| 20260506113505 | 58 | 19 | 4.3 | 8.7 | 0.00 | 0.00 | 0.00 | 51 | 1009.5 |
| 20260506110005 | 56 | 347 | 4.3 | 7.0 | 0.00 | 0.00 | 0.00 | 64 | 1009.5 |
| 20260506105504 | 56 | 8 | 6.1 | 11.3 | 0.00 | 0.00 | 0.00 | 64 | 1009.5 |
| 20260506095004 | 57 | 0 | 4.3 | 12.2 | 0.00 | 0.00 | 0.00 | 64 | 1009.2 |
| 20260506094504 | 57 | 27 | 3.5 | 8.7 | 0.00 | 0.00 | 0.00 | 66 | 1009.1 |
| 20260506094004 | 56 | 35 | 4.3 | 17.4 | 0.00 | 0.00 | 0.00 | 66 | 1009.1 |
| 20260506093505 | 57 | 47 | 4.3 | 13.0 | 0.00 | 0.00 | 0.00 | 66 | 1009.1 |
| 20260506093005 | 57 | 354 | 5.2 | 10.4 | 0.00 | 0.00 | 0.00 | 66 | 1009.1 |
| 20260506092004 | 57 | 18 | 5.2 | 12.2 | 0.00 | 0.00 | 0.00 | 67 | 1009.1 |
| 20260506091504 | 57 | 32 | 5.2 | 11.3 | 0.00 | 0.00 | 0.00 | 66 | 1009.1 |
| 20260506091004 | 57 | 20 | 5.2 | 13.0 | 0.00 | 0.00 | 0.00 | 67 | 1009.0 |
| 20260506090004 | 56 | 61 | 4.3 | 12.2 | 0.00 | 0.00 | 0.00 | 68 | 1009.1 |
| 20260506085504 | 56 | 59 | 5.2 | 10.4 | 0.00 | 0.00 | 0.00 | 68 | 1009.0 |
| 20260506085005 | 56 | 63 | 6.1 | 8.7 | 0.00 | 0.00 | 0.00 | 69 | 1009.0 |
| 20260506084504 | 55 | 19 | 4.3 | 8.7 | 0.00 | 0.00 | 0.00 | 72 | 1009.0 |
| 20260506084009 | 55 | 6 | 6.1 | 10.4 | 0.00 | 0.00 | 0.00 | 72 | 1009.0 |
| 20260506083010 | 55 | 17 | 3.5 | 8.7 | 0.00 | 0.00 | 0.00 | 74 | 1009.0 |
| 20260506082508 | 54 | 16 | 4.3 | 10.4 | 0.00 | 0.00 | 0.00 | 74 | 1009.0 |
| 20260506073508 | 54 | 25 | 4.3 | 10.4 | 0.00 | 0.00 | 0.00 | 76 | 1009.0 |
| 20260506072508 | 54 | 0 | 4.3 | 8.7 | 0.00 | 0.00 | 0.00 | 76 | 1009.0 |
| 20260506062008 | 52 | 1 | 5.2 | 10.4 | 0.00 | 0.00 | 0.00 | 80 | 1008.6 |
| 20260506061508 | 52 | 11 | 4.3 | 8.7 | 0.00 | 0.00 | 0.00 | 81 | 1008.6 |
| 20260506045007 | 50 | 4 | 5.2 | 10.4 | 0.00 | 0.00 | 0.00 | 83 | 1008.6 |
| 20260506044507 | 50 | 353 | 6.1 | 8.7 | 0.00 | 0.00 | 0.00 | 83 | 1008.6 |
| 20260506041508 | 50 | 5 | 3.5 | 7.8 | 0.00 | 0.00 | 0.00 | 83 | 1008.6 |
| 20260506041008 | 50 | 355 | 3.5 | 10.4 | 0.00 | 0.00 | 0.00 | 82 | 1008.6 |
| 20260506035008 | 49 | 4 | 3.5 | 7.8 | 0.00 | 0.00 | 0.00 | 82 | 1008.7 |
| 20260506033507 | 49 | 2 | 4.3 | 8.7 | 0.00 | 0.00 | 0.00 | 82 | 1008.9 |
| 20260506033008 | 49 | 355 | 5.2 | 7.8 | 0.00 | 0.00 | 0.00 | 83 | 1008.9 |
| 20260506032507 | 49 | 358 | 4.3 | 7.8 | 0.00 | 0.00 | 0.00 | 83 | 1008.9 |
| 20260506031008 | 49 | 339 | 4.3 | 7.8 | 0.00 | 0.00 | 0.00 | 83 | 1009.0 |
| 20260506025007 | 49 | 13 | 3.5 | 6.1 | 0.00 | 0.00 | 0.00 | 84 | 1009.1 |
| 20260506024508 | 49 | 355 | 3.5 | 6.1 | 0.00 | 0.00 | 0.00 | 84 | 1009.1 |
| 20260506024008 | 49 | 11 | 2.6 | 7.0 | 0.00 | 0.00 | 0.00 | 84 | 1009.1 |
| 20260506023507 | 49 | 1 | 2.6 | 6.1 | 0.00 | 0.00 | 0.00 | 84 | 1009.1 |
| 20260506023008 | 49 | 3 | 4.3 | 7.0 | 0.00 | 0.00 | 0.00 | 84 | 1009.1 |
| 20260506015507 | 48 | 1 | 5.2 | 8.7 | 0.00 | 0.00 | 0.00 | 84 | 1009.2 |
| 20260506015007 | 48 | 0 | 5.2 | 8.7 | 0.00 | 0.00 | 0.00 | 84 | 1009.3 |
| 20260506014507 | 48 | 7 | 4.3 | 10.4 | 0.00 | 0.00 | 0.00 | 84 | 1009.2 |
| 20260506014007 | 48 | 350 | 4.3 | 10.4 | 0.00 | 0.00 | 0.00 | 84 | 1009.2 |
| 20260506013507 | 48 | 355 | 4.3 | 8.7 | 0.00 | 0.00 | 0.00 | 84 | 1009.3 |
| 20260506012007 | 48 | 15 | 4.3 | 10.4 | 0.00 | 0.00 | 0.00 | 84 | 1009.3 |
| 20260506011507 | 48 | 11 | 3.5 | 7.0 | 0.00 | 0.00 | 0.00 | 84 | 1009.3 |
| 20260506011007 | 48 | 0 | 4.3 | 7.8 | 0.00 | 0.00 | 0.00 | 84 | 1009.3 |
| 20260506010007 | 48 | 3 | 5.2 | 8.7 | 0.00 | 0.00 | 0.00 | 84 | 1009.5 |
| 20260506005506 | 48 | 0 | 3.5 | 7.8 | 0.00 | 0.00 | 0.00 | 84 | 1009.6 |
| 20260506005007 | 48 | 13 | 2.6 | 7.0 | 0.00 | 0.00 | 0.00 | 84 | 1009.6 |
| 20260506003506 | 48 | 4 | 2.6 | 7.8 | 0.00 | 0.00 | 0.00 | 83 | 1009.6 |
| 20260506003008 | 48 | 328 | 4.3 | 10.4 | 0.00 | 0.00 | 0.00 | 83 | 1009.7 |
| 20260506002508 | 48 | 352 | 6.1 | 10.4 | 0.00 | 0.00 | 0.00 | 83 | 1009.7 |
| 20260505235007 | 48 | 357 | 4.3 | 8.7 | 0.00 | 0.00 | 0.00 | 81 | 1010.0 |
| 20260505234506 | 48 | 351 | 3.5 | 7.8 | 0.00 | 0.00 | 0.00 | 81 | 1010.0 |
| 20260505234007 | 48 | 358 | 4.3 | 7.8 | 0.00 | 0.00 | 0.00 | 81 | 1010.1 |
| 20260505233506 | 48 | 356 | 2.6 | 7.8 | 0.00 | 0.00 | 0.00 | 81 | 1010.1 |
| 20260505232507 | 48 | 355 | 3.5 | 7.0 | 0.00 | 0.00 | 0.00 | 80 | 1010.1 |
| 20260505232007 | 48 | 3 | 4.3 | 8.7 | 0.00 | 0.00 | 0.00 | 80 | 1010.1 |
| 20260505231506 | 48 | 358 | 4.3 | 7.8 | 0.00 | 0.00 | 0.00 | 79 | 1010.1 |
| 20260505231007 | 49 | 3 | 4.3 | 14.8 | 0.00 | 0.00 | 0.00 | 79 | 1010.2 |
| 20260505230007 | 49 | 1 | 4.3 | 8.7 | 0.00 | 0.00 | 0.00 | 78 | 1010.2 |
| 20260505225507 | 49 | 2 | 4.3 | 10.4 | 0.00 | 0.00 | 0.00 | 78 | 1010.3 |
| 20260505225007 | 49 | 3 | 3.5 | 7.0 | 0.00 | 0.00 | 0.00 | 78 | 1010.3 |
| 20260505221507 | 49 | 9 | 4.3 | 10.4 | 0.00 | 0.00 | 0.00 | 78 | 1010.5 |
| 20260505221007 | 49 | 4 | 5.2 | 10.4 | 0.00 | 0.00 | 0.00 | 78 | 1010.5 |
| 20260505220007 | 49 | 347 | 5.2 | 7.8 | 0.00 | 0.00 | 0.00 | 78 | 1010.6 |
| 20260505215506 | 49 | 7 | 5.2 | 7.0 | 0.00 | 0.00 | 0.00 | 78 | 1010.6 |
| 20260505215007 | 49 | 3 | 4.3 | 7.8 | 0.00 | 0.00 | 0.00 | 78 | 1010.6 |
| 20260505214507 | 49 | 0 | 5.2 | 7.8 | 0.00 | 0.00 | 0.00 | 78 | 1010.6 |
| 20260505214006 | 49 | 0 | 3.5 | 7.8 | 0.00 | 0.00 | 0.00 | 78 | 1010.6 |
| 20260505213507 | 49 | 353 | 4.3 | 7.0 | 0.00 | 0.00 | 0.00 | 78 | 1010.6 |
| 20260505213006 | 49 | 355 | 4.3 | 7.8 | 0.00 | 0.00 | 0.00 | 78 | 1010.7 |
| 20260505212506 | 49 | 355 | 3.5 | 7.0 | 0.00 | 0.00 | 0.00 | 78 | 1010.7 |
| 20260505212007 | 49 | 355 | 2.6 | 6.1 | 0.00 | 0.00 | 0.00 | 78 | 1010.7 |
| 20260505204506 | 50 | 359 | 3.5 | 7.0 | 0.00 | 0.00 | 0.00 | 78 | 1010.9 |
| 20260505204006 | 50 | 3 | 2.6 | 7.8 | 0.00 | 0.00 | 0.00 | 77 | 1011.0 |
| 20260505203506 | 50 | 355 | 4.3 | 7.0 | 0.00 | 0.00 | 0.00 | 77 | 1010.9 |
| 20260505203006 | 50 | 3 | 2.6 | 6.1 | 0.00 | 0.00 | 0.00 | 77 | 1010.9 |
| 20260505194506 | 51 | 35 | 2.6 | 5.2 | 0.00 | 0.00 | 0.00 | 77 | 1010.6 |
| 20260505194006 | 51 | 359 | 2.6 | 6.1 | 0.00 | 0.00 | 0.00 | 77 | 1010.6 |
| 20260505193007 | 51 | 315 | 3.5 | 7.0 | 0.00 | 0.00 | 0.00 | 76 | 1010.6 |
| 20260505192506 | 51 | 13 | 4.3 | 7.0 | 0.00 | 0.00 | 0.00 | 76 | 1010.5 |
| 20260505191506 | 52 | 10 | 2.6 | 5.2 | 0.00 | 0.00 | 0.00 | 75 | 1010.2 |
| 20260505191006 | 52 | 9 | 3.5 | 7.8 | 0.00 | 0.00 | 0.00 | 74 | 1010.2 |
| 20260505190006 | 52 | 3 | 4.3 | 10.4 | 0.00 | 0.00 | 0.00 | 74 | 1010.1 |
| 20260505185506 | 53 | 352 | 4.3 | 8.7 | 0.00 | 0.00 | 0.00 | 74 | 1010.1 |
| 20260505183006 | 54 | 19 | 5.2 | 12.2 | 0.00 | 0.00 | 0.00 | 72 | 1010.0 |
| 20260505182506 | 54 | 351 | 5.2 | 10.4 | 0.00 | 0.00 | 0.00 | 72 | 1010.0 |
| 20260505173006 | 56 | 3 | 4.3 | 8.7 | 0.00 | 0.00 | 0.00 | 68 | 1009.9 |
| 20260505172505 | 56 | 19 | 5.2 | 10.4 | 0.00 | 0.00 | 0.00 | 67 | 1009.9 |
| 20260505172006 | 56 | 7 | 3.5 | 8.7 | 0.00 | 0.00 | 0.00 | 67 | 1010.0 |
| 20260505171506 | 56 | 343 | 4.3 | 7.8 | 0.00 | 0.00 | 0.00 | 67 | 1010.0 |
| 20260505171007 | 56 | 357 | 4.3 | 11.3 | 0.00 | 0.00 | 0.00 | 67 | 1010.0 |
| 20260505165505 | 57 | 7 | 7.8 | 13.0 | 0.00 | 0.00 | 0.00 | 65 | 1010.1 |
| 20260505165006 | 57 | 358 | 5.2 | 8.7 | 0.00 | 0.00 | 0.00 | 65 | 1010.1 |
| 20260505164506 | 58 | 351 | 4.3 | 10.4 | 0.00 | 0.00 | 0.00 | 65 | 1010.1 |
| 20260505162005 | 58 | 27 | 6.1 | 11.3 | 0.00 | 0.00 | 0.00 | 65 | 1010.1 |
| 20260505161506 | 58 | 26 | 4.3 | 10.4 | 0.00 | 0.00 | 0.00 | 65 | 1010.1 |
| 20260505161005 | 58 | 61 | 5.2 | 10.4 | 0.00 | 0.00 | 0.00 | 65 | 1010.1 |
| 20260505153006 | 58 | 15 | 4.3 | 8.7 | 0.00 | 0.00 | 0.00 | 62 | 1010.1 |
| 20260505152505 | 58 | 76 | 4.3 | 12.2 | 0.00 | 0.00 | 0.00 | 63 | 1010.1 |
| 20260505151506 | 58 | 67 | 5.2 | 11.3 | 0.00 | 0.00 | 0.00 | 63 | 1010.1 |